カタログに戻る

IRIDIUM 33 DEB

運用中PO
NORAD 35631·DEBRIS·🇺🇸 United States

打ち上げ Sep 14, 1997 から Baikonur Cosmodrome

Loading…

次のパス (今後24時間)

TLE

最新Source: Space-Track

元期: Sep 14, 2026, 11:33 UTC

1 35631U 97051RD  26257.48135058  .00000568  00000-0  14789-3 0  9997
2 35631  86.3601 262.1688 0014396 283.7828 228.2510 14.47897538911869

AllMySatでIRIDIUM 33 DEBをリアルタイム追跡

Download on the App Store